[[{"header":{"parameterUnit":"m.s-1","parameterCategory":1,"la1":30.2991,"la2":30.254,"lo1":-89.0895,"lo2":-89.0444,"dy":0.0017,"dx":0.0017,"nx":28,"ny":28,"refTime":"2023-10-03T03:00:00:Z","depth":0,"parameterNumber":2,"parameterNumberName":"U-component_of_WINDS"},"data":[0,0,0,0,0,0,0,0,0,0,0,0,0,0,0,0,0,0,0,0,0,0,0,0,0,0,0,0,0,0,0,0,0,0,0,0,0,0,0,0,0,0,0,0,0,0,0,0,0,0,0,0,0,0,0,0,0,0,-4.4393,-4.4392,0,-4.4368,-4.4368,-4.4367,-4.4257,-4.4255,-4.4252,-4.425,-4.4226,-4.4228,-4.4229,0,0,0,0,0,0,0,0,0,0,0,0,0,-4.4348,-4.435,-4.4393,-4.4392,-4.4392,-4.4368,-4.4368,-4.4367,-4.4258,-4.4255,-4.4251,-4.4249,-4.4225,-4.4227,-4.423,0,0,0,0,0,0,0,0,0,0,0,0,0,-4.435,-4.435,-4.4393,-4.4334,-4.4329,-4.4368,-4.4368,-4.4367,-4.4258,-4.4255,-4.4251,-4.4247,-4.4225,-4.4227,-4.423,-4.4324,0,0,-4.4238,-4.4239,0,0,0,0,0,0,0,0,-4.435,-4.4352,-4.4343,-4.4338,-4.4332,-4.4312,-4.4343,-4.4353,-4.4259,-4.4285,-4.425,-4.4245,-4.4258,-4.4257,-4.4261,-4.4322,-4.4321,-4.4238,-4.424,-4.4241,-4.4242,0,0,0,0,0,0,0,-4.435,-4.4352,-4.4383,-4.4343,-4.4337,-4.4311,-4.4307,-4.4344,-4.4294,-4.4283,-4.4275,-4.4273,-4.4254,-4.4259,-4.426,-4.4321,-4.4238,-4.424,-4.4242,-4.4243,-4.446,-4.4464,0,0,0,0,0,0,-4.4358,-4.4353,-4.4384,-4.4382,-4.4332,-4.4315,-4.431,-4.4322,-4.4293,-4.4284,-4.4276,-4.4268,-4.4256,-4.4257,-4.4259,-4.4366,-4.4241,-4.4243,-4.4245,-4.4456,-4.4461,-4.4465,0,0,0,0,0,0,-4.4357,-4.4362,-4.4385,-4.4365,-4.4366,-4.4319,-4.4334,-4.4324,-4.4328,-4.4288,-4.4279,-4.4291,-4.4253,-4.4255,-4.4308,-4.4364,-4.4245,-4.4247,-4.4451,-4.4457,-4.4463,-4.4583,0,0,0,0,0,0,-4.4357,-4.4362,-4.4396,-4.4367,-4.4368,-4.4434,-4.4337,-4.4326,-4.4333,-4.4322,-4.4299,-4.4291,-4.425,-4.4305,-4.4311,-4.4365,-4.4249,-4.4445,-4.4454,-4.4461,-4.4574,-4.4592,-4.4609,0,0,0,0,0,-4.4355,-4.4431,-4.4398,-4.4403,-4.4409,-4.4437,-4.4438,-4.4389,-4.4338,-4.4372,-4.4347,-4.4292,-4.4358,-4.4312,-4.4317,-4.4373,-4.4442,-4.4451,-4.446,-4.4566,-4.4589,-4.4608,0,0,0,0,0,0,-4.4467,-4.4426,-4.4389,-4.4457,-4.4452,-4.4419,-4.446,-4.4414,-4.4423,-4.4412,-4.4352,-4.4348,-4.4411,-4.4398,-4.4347,-4.4464,-4.4391,-4.4402,-4.4469,-4.449,-4.4507,-4.4508,-4.4251,0,0,0,0,0,-4.45,-4.4525,-4.4488,-4.4552,-4.4551,-4.4507,-4.4517,-4.448,-4.4472,-4.4469,-4.4447,-4.4443,-4.4462,-4.4476,-4.4492,-4.4573,-4.4566,-4.4615,-4.4632,-4.4647,-4.4656,-4.4699,-4.472,-4.4496,-4.4496,-4.4496,0,0,-4.4567,-4.4548,-4.4567,-4.4574,-4.4565,-4.4594,-4.4505,-4.4539,-4.456,-4.4474,-4.4523,-4.4508,-4.4499,-4.4567,-4.4596,-4.4558,-4.4717,-4.4658,-4.467,-4.4672,-4.4711,-4.4732,-4.4751,-4.4502,-4.4501,-4.45,0,0,-4.4704,-4.4692,-4.4744,-4.4738,-4.4726,-4.4697,-4.471,-4.4685,-4.4671,-4.472,-4.4656,-4.4682,-4.4717,-4.4713,-4.4715,-4.4856,-4.4806,-4.4863,-4.4953,-4.4995,-4.5013,-4.5028,-4.5078,-4.5096,-4.4873,-4.4874,-4.4874,0,-4.4788,-4.4828,-4.4777,-4.4815,-4.482,-4.4746,-4.4799,-4.4796,-4.479,-4.4796,-4.4755,-4.4798,-4.4786,-4.4853,-4.4888,-4.4893,-4.4906,-4.4863,-4.5015,-4.5029,-4.5043,-4.5089,-4.5108,-4.488,-4.488,-4.4879,-4.4878,0,-4.4933,-4.4963,-4.5007,-4.5003,-4.5014,-4.506,-4.5016,-4.5034,-4.4998,-4.4974,-4.5025,-4.5009,-4.5021,-4.5035,-4.5,-4.5097,-4.5074,-4.5025,-4.495,-4.5072,-4.5115,-4.5132,-4.489,-4.4888,-4.4886,-4.4884,0,0,-4.5135,-4.5106,-4.5122,-4.5121,-4.5105,-4.5127,-4.5171,-4.5183,-4.5199,-4.5199,-4.5234,-4.5268,-4.5223,-4.5226,-4.519,-4.5228,-4.5341,-4.5174,-4.5173,-4.5204,-4.5448,-4.5483,-4.5505,-4.5309,-4.5312,-4.5315,-4.5448,0,-4.5265,-4.5336,-4.5293,-4.5371,-4.5398,-4.533,-4.5369,-4.5364,-4.5344,-4.5365,-4.5343,-4.5367,-4.5306,-4.5307,-4.5342,-4.532,-4.5388,-4.531,-4.5341,-4.5343,-4.5343,-4.5527,-4.5564,-4.569,-4.5464,-4.5467,-4.5469,0,-4.5424,-4.5432,-4.5513,-4.5494,-4.5504,-4.5539,-4.5547,-4.5568,-4.5563,-4.5545,-4.5551,-4.5507,-4.555,-4.5479,-4.5538,-4.5486,-4.5497,-4.5489,-4.5492,-4.5491,-4.5411,-4.5529,-4.5729,-4.5748,-4.5495,-4.5493,-4.5491,0,-4.5562,-4.5593,-4.5646,-4.5647,-4.5626,-4.5653,-4.5645,-4.5636,-4.5647,-4.5655,-4.5662,-4.5676,-4.5683,-4.5695,-4.5657,-4.5608,-4.5721,-4.5646,-4.5708,-4.5709,-4.5732,-4.573,-4.5935,-4.5743,-4.5743,-4.5743,-4.5742,0,-4.5709,-4.5761,-4.5708,-4.574,-4.5797,-4.5749,-4.5807,-4.5793,-4.5786,-4.5815,-4.5759,-4.5788,-4.5736,-4.5761,-4.5732,-4.5785,-4.5789,-4.5777,-4.5768,-4.578,-4.5782,-4.5784,-4.5774,-4.5747,-4.5746,-4.5745,-4.5745,0,-4.5871,-4.5837,-4.589,-4.5867,-4.5863,-4.5906,-4.5887,-4.5917,-4.5895,-4.5933,-4.5939,-4.5904,-4.593,-4.5894,-4.5916,-4.5897,-4.597,-4.5949,-4.5971,-4.5964,-4.6028,-4.6022,-4.6239,-4.6265,-4.6059,-4.6061,-4.6063,0,-4.5965,-4.6004,-4.5987,-4.6002,-4.5998,-4.6025,-4.6036,-4.5991,-4.6005,-4.6004,-4.6034,-4.6056,-4.607,-4.6116,-4.6092,-4.611,-4.6088,-4.6163,-4.609,-4.6102,-4.6087,-4.6085,-4.6088,-4.6177,-4.6179,-4.6181,-4.6183,0,-4.6137,-4.612,-4.6138,-4.6151,-4.6167,-4.6175,-4.6179,-4.6196,-4.6149,-4.6169,-4.6195,-4.6206,-4.623,-4.6252,-4.6264,-4.6258,-4.6213,-4.6207,-4.6222,-4.6234,-4.6245,-4.6239,-4.601,-4.6201,-4.6199,-4.6198,-4.6197,-4.6196,-4.6267,-4.6299,-4.6292,-4.6315,-4.6314,-4.632,-4.6347,-4.633,-4.6351,-4.6366,-4.634,-4.6373,-4.637,-4.6381,-4.638,-4.6406,-4.6374,-4.6396,-4.6401,-4.6406,-4.6415,-4.6243,-4.6409,-4.6408,-4.6408,-4.6407,-4.6407,0,-4.6435,-4.6428,-4.645,-4.6458,-4.6477,-4.6436,-4.6439,-4.6457,-4.6487,-4.6488,-4.6504,-4.6536,-4.6558,-4.6539,-4.6557,-4.6582,-4.6562,-4.6588,-4.6585,-4.6584,-4.6444,-4.6429,-4.6604,-4.6604,-4.6604,-4.6604,-4.6604,-4.6604,-4.6524,-4.6576,-4.6558,-4.661,-4.6603,-4.6635,-4.6641,-4.6647,-4.6648,-4.6685,-4.6704,-4.6691,-4.6684,-4.6702,-4.6722,-4.6715,-4.6724,-4.6758,-4.6744,-4.6613,-4.6594,-4.6575,-4.656,-4.676,-4.6761,-4.6881,-4.6883,-4.6883]},{"header":{"parameterUnit":"m.s-1","parameterCategory":1,"la1":30.2991,"la2":30.254,"lo1":-89.0895,"lo2":-89.0444,"dy":0.0017,"dx":0.0017,"nx":28,"ny":28,"refTime":"2023-10-03T03:00:00:Z","depth":0,"parameterNumber":3,"parameterNumberName":"V-component_of_WINDS"},"data":[0,0,0,0,0,0,0,0,0,0,0,0,0,0,0,0,0,0,0,0,0,0,0,0,0,0,0,0,0,0,0,0,0,0,0,0,0,0,0,0,0,0,0,0,0,0,0,0,0,0,0,0,0,0,0,0,0,0,2.5546,2.5545,0,2.5524,2.5524,2.5524,2.556,2.5561,2.5562,2.5563,2.5533,2.5531,2.5529,0,0,0,0,0,0,0,0,0,0,0,0,0,2.5612,2.561,2.5546,2.5545,2.5545,2.5524,2.5524,2.5524,2.556,2.5561,2.5563,2.5564,2.5534,2.5532,2.5529,0,0,0,0,0,0,0,0,0,0,0,0,0,2.5586,2.561,2.5546,2.5561,2.5562,2.5524,2.5524,2.5524,2.5559,2.5561,2.5563,2.5565,2.5535,2.5532,2.5529,2.5473,0,0,2.552,2.5519,0,0,0,0,0,0,0,0,2.5587,2.5583,2.5559,2.556,2.5561,2.5547,2.5536,2.5506,2.5559,2.556,2.5564,2.5566,2.5536,2.5533,2.5524,2.5472,2.547,2.552,2.5518,2.5516,2.5516,0,0,0,0,0,0,0,2.5589,2.5584,2.5537,2.5558,2.556,2.5567,2.5565,2.5531,2.5537,2.556,2.5563,2.556,2.5537,2.5527,2.5524,2.547,2.552,2.5517,2.5515,2.5514,2.5371,2.537,0,0,0,0,0,0,2.559,2.5585,2.5538,2.5536,2.5579,2.5564,2.5562,2.5549,2.5538,2.5538,2.5558,2.5562,2.5531,2.5527,2.5523,2.5457,2.5517,2.5514,2.5512,2.5373,2.5371,2.5369,0,0,0,0,0,0,2.5591,2.5585,2.5539,2.5562,2.5556,2.5561,2.5546,2.5548,2.5539,2.5537,2.5537,2.5548,2.5533,2.5527,2.5486,2.5457,2.5512,2.551,2.5376,2.5373,2.537,2.5325,0,0,0,0,0,0,2.5593,2.5585,2.5565,2.5561,2.5555,2.5504,2.5544,2.5546,2.5534,2.5539,2.5527,2.5527,2.5534,2.549,2.5483,2.5454,2.5507,2.5378,2.5374,2.5371,2.5329,2.5321,2.5314,0,0,0,0,0,2.5595,2.5552,2.5564,2.5558,2.5531,2.5502,2.5498,2.5509,2.5532,2.5511,2.551,2.5527,2.5462,2.5486,2.5478,2.5447,2.538,2.5376,2.5371,2.5332,2.5322,2.5314,0,0,0,0,0,0,2.5549,2.5551,2.5565,2.552,2.5511,2.5508,2.5482,2.5498,2.548,2.5484,2.5496,2.5493,2.5449,2.5444,2.5471,2.5393,2.5424,2.5418,2.5398,2.5388,2.5381,2.5382,2.5505,0,0,0,0,0,2.5534,2.5513,2.5515,2.5474,2.547,2.5477,2.5464,2.5474,2.5464,2.546,2.5456,2.5443,2.542,2.5404,2.5383,2.533,2.5327,2.5305,2.5297,2.5291,2.5284,2.5256,2.5246,2.5354,2.5354,2.5354,0,0,2.5501,2.55,2.5485,2.5465,2.5459,2.5435,2.5473,2.5445,2.5427,2.5455,2.5416,2.5413,2.54,2.5353,2.5332,2.5347,2.5254,2.5285,2.528,2.5277,2.525,2.524,2.5231,2.5351,2.5351,2.5352,0,0,2.543,2.5428,2.5394,2.5389,2.5381,2.5386,2.5378,2.5374,2.5374,2.5337,2.5357,2.5335,2.5295,2.5285,2.5274,2.5203,2.5217,2.5195,2.5154,2.5127,2.5118,2.5111,2.5084,2.5075,2.519,2.5189,2.5189,0,2.539,2.5357,2.5374,2.5346,2.5336,2.5364,2.5329,2.5322,2.5306,2.5298,2.5317,2.5268,2.5261,2.5212,2.5196,2.5187,2.5176,2.5195,2.5119,2.5111,2.5104,2.5079,2.5069,2.5187,2.5187,2.5187,2.5188,0,2.5308,2.5284,2.5258,2.5246,2.5233,2.5202,2.5213,2.5197,2.5209,2.5212,2.5174,2.5167,2.5145,2.5135,2.5144,2.5087,2.5097,2.5117,2.5148,2.5091,2.5067,2.5058,2.5183,2.5184,2.5185,2.5185,0,0,2.5203,2.5204,2.5194,2.5189,2.5184,2.5165,2.5135,2.5117,2.5103,2.5092,2.5066,2.5033,2.5052,2.5041,2.505,2.5026,2.4969,2.5048,2.5048,2.5033,2.4905,2.4889,2.4878,2.498,2.4978,2.4977,2.4906,0,2.5132,2.5083,2.5099,2.5048,2.5026,2.5054,2.5028,2.5021,2.5024,2.5004,2.5006,2.4982,2.501,2.5003,2.4981,2.4981,2.4943,2.4986,2.4953,2.4952,2.4954,2.4866,2.4849,2.4782,2.4897,2.4895,2.4894,0,2.5042,2.5031,2.4979,2.4979,2.4971,2.4947,2.4932,2.4914,2.4907,2.491,2.4899,2.4914,2.4883,2.4917,2.4873,2.4902,2.489,2.4888,2.4886,2.4881,2.4918,2.4857,2.4761,2.475,2.488,2.4881,2.4882,0,2.497,2.4942,2.4908,2.4903,2.4902,2.4885,2.4884,2.4879,2.4867,2.4854,2.4846,2.4828,2.4818,2.4803,2.4812,2.4836,2.4767,2.4801,2.4767,2.4766,2.4749,2.4749,2.4647,2.4744,2.4744,2.4744,2.4744,0,2.4888,2.4854,2.4876,2.4854,2.4818,2.4836,2.4799,2.48,2.4796,2.4774,2.4797,2.4775,2.4789,2.4768,2.4775,2.4738,2.4733,2.4733,2.4735,2.473,2.473,2.4721,2.4725,2.4742,2.4742,2.4743,2.4743,0,2.48,2.4814,2.4778,2.4782,2.4782,2.4755,2.4757,2.4737,2.4743,2.4715,2.4709,2.4717,2.4694,2.4702,2.4676,2.4681,2.4633,2.4642,2.4636,2.4638,2.4603,2.4605,2.4489,2.4475,2.4582,2.4581,2.4581,0,2.4746,2.4722,2.4724,2.4713,2.4711,2.4692,2.4681,2.4699,2.4686,2.4678,2.4658,2.4638,2.4622,2.4583,2.4585,2.4566,2.4573,2.4534,2.457,2.4567,2.4571,2.4572,2.4569,2.4526,2.4525,2.4524,2.4523,0,2.4648,2.4657,2.4642,2.463,2.4618,2.4609,2.4601,2.459,2.4607,2.4592,2.4571,2.4559,2.4535,2.4514,2.4497,2.4493,2.451,2.4512,2.4503,2.4497,2.4494,2.4494,2.4615,2.4514,2.4515,2.4516,2.4516,2.4516,2.4575,2.4555,2.4555,2.4538,2.4535,2.4528,2.4509,2.4514,2.4498,2.4481,2.4492,2.4467,2.4461,2.4441,2.4435,2.4414,2.4429,2.4416,2.4412,2.4408,2.4403,2.45,2.4411,2.4411,2.4412,2.4412,2.4412,0,2.4478,2.448,2.4464,2.4455,2.4441,2.4463,2.4456,2.4443,2.4421,2.4416,2.4401,2.4376,2.4357,2.4359,2.434,2.4323,2.433,2.4317,2.4318,2.4316,2.4391,2.4401,2.4312,2.4312,2.4312,2.4312,2.4312,2.4312,2.4425,2.4393,2.4402,2.4368,2.4369,2.4347,2.4341,2.4334,2.433,2.4303,2.4288,2.4291,2.4288,2.427,2.4252,2.4253,2.4245,2.4229,2.4232,2.4301,2.4311,2.432,2.4329,2.4227,2.4227,2.4159,2.4158,2.4158]}]]